Regional Weather Roundup
Issued by NWS

Home | Current Version | Previous Version | Graphics & Text | Print | Product List | Glossary On
Versions: 1 2 3 4 5 6 7 8 9 10 11 12 13 14 15 16 17 18 19 20 21 22 23 24 25 26 27 28 29 30 31 32 33 34 35 36 37 38 39 40 41 42 43 44 45 46 47 48 49 50
000
ASUS43 KDMX 271107
RWRIA

WEATHER ROUNDUP FOR IOWA
NATIONAL WEATHER SERVICE DES MOINES IA
600 AM CDT FRI MAR 27 2015

NOTE: "FAIR" INDICATES FEW OR NO CLOUDS BELOW 12,000 FEET WITH NO
SIGNIFICANT WEATHER AND/OR OBSTRUCTIONS TO VISIBILITY.

* - THESE STATIONS ARE NOT NWS STATIONS...THUS NOT UNDER NWS
QUALITY CONTROL.  THEY ALSO DO NOT REPORT WEATHER SUCH
AS PRECIPITATION OR FOG.

IAZ001>003-012>014-020>022-031>034-043>046-271200-
   NORTHWEST IOWA

CITY           SKY/WX    TMP DP  RH WIND       PRES   REMARKS
CARROLL *      CLEAR     21  16  79 NW9       30.22S WCI  11
CHEROKEE *       N/A     19  16  86 N6        30.25R WCI  11
DENISON *      CLEAR     21  18  86 N3        30.22S
LE MARS *      CLEAR     19  14  79 CALM      30.27R
ORANGE CITY *  CLEAR     19  14  79 N5        30.25R WCI  13
SHELDON *      CLEAR     16  12  86 N6        30.24R WCI   7
SIOUX CITY     CLEAR     19  11  70 NW8       30.28R WCI   9
SPENCER        CLEAR     17  12  80 N9        30.24R WCI   6
STORM LAKE *   CLEAR     18  14  86 N9        30.23R WCI   6
$$

IAZ055>058-069>071-079>083-090>094-271200-
   SOUTHWEST IOWA

CITY           SKY/WX    TMP DP  RH WIND       PRES   REMARKS
ATLANTIC *     CLEAR     21  18  86 N10       30.23S WCI  10
AUDUBON *      CLEAR     19  16  86 CALM      30.22R
CLARINDA *     CLEAR     25  21  86 N8        30.25R WCI  16
COUNCIL BLFS * CLEAR     23  19  86 N8        30.25R WCI  14
CRESTON *      CLEAR     25  18  74 N9        30.20R WCI  15
HARLAN  *      CLEAR     21  19  93 N6        30.27R WCI  14
LAMONI         PTCLDY    25  20  81 NW7       30.18R WCI  17
RED OAK *      CLEAR     23  19  86 N9        30.24S WCI  13
SHENANDOAH *   CLEAR     25  19  80 N7        30.25S WCI  17
$$

IAZ047>049-059>061-072>074-084-271200-
   CENTRAL IOWA

CITY           SKY/WX    TMP DP  RH WIND       PRES   REMARKS
AMES           CLEAR     23  17  78 N9        30.20S WCI  13
ANKENY *       CLEAR     27  19  74 N9        30.20S WCI  17
CHARITON *     MOCLDY    27  18  69 N8        30.18R WCI  18
DES MOINES     PTCLDY    28  17  63 N9        30.20S WCI  19
GRINNELL*      CLEAR     23  19  86 N8        30.18S WCI  14
KNOXVILLE *    MOCLDY    28  18  64 N10G17    30.17S WCI  19
MARSHALLTOWN   CLEAR     22  18  85 N9        30.18S WCI  12
PELLA *        CLEAR     27  23  86 N6        30.19S WCI  20
PERRY *          N/A     21  19  93 NW8       30.21S WCI  12
$$

IAZ004>006-015-016-023>025-035-036-271200-
   NORTH CENTRAL IOWA

CITY           SKY/WX    TMP DP  RH WIND       PRES   REMARKS
ALGONA *       CLEAR     21  18  86 N6        30.23R WCI  14
CLARION *      CLEAR     23  19  86 N7        30.21S WCI  15
ESTHERVILLE    CLEAR     18  12  77 NW9       30.23R WCI   7
FORT DODGE *   CLEAR     21  16  79 N6        30.22R WCI  14
MASON CITY     CLEAR     17  13  84 N7        30.22R WCI   8
FOREST CITY *  CLEAR     18  14  86 N6        30.21S WCI   9
IOWA FALLS *     N/A     23  18  80 N6        30.21R WCI  16
$$

IAZ007>011-017>019-026>030-037>042-050>054-066-271200-
   NORTHEAST IOWA

CITY           SKY/WX    TMP DP  RH WIND       PRES   REMARKS
CEDAR RAPIDS   CLEAR     24  19  81 N8        30.16R WCI  15
CHARLES CITY * CLEAR     19  14  79 N7        30.21R WCI  10
CLINTON *      PTCLDY    25  14  63 NE12      30.19R WCI  14
DECORAH *      CLEAR     19   7  58 NE5       30.19S WCI  13
DUBUQUE        CLEAR     21   8  57 N16       30.16R WCI   7
MONTICELLO *   PTCLDY    25  12  58 NE9G15    30.18R WCI  15
OELWEIN *      CLEAR     21  16  79 NE9       30.19S WCI  11
WATERLOO       CLEAR     21  15  78 N9        30.20R WCI  11
$$

IAZ064-065-067-068-078-271200-
   EAST CENTRAL IOWA

CITY           SKY/WX    TMP DP  RH WIND       PRES   REMARKS
DAVENPORT      CLOUDY    28  17  63 NE13      30.15R WCI  17
IOWA CITY      CLOUDY    29  20  69 NW8       30.18R WCI  21
MT. PLEASANT * CLOUDY    28  21  74 NW9       30.15S WCI  20
MUSCATINE *    CLOUDY    28  23  80 N7        30.16R WCI  21
QUAD CITIES    CLOUDY    30  17  58 N8        30.14R WCI  22
$$

IAZ062-063-075>077-085>089-095>099-271200-
   SOUTHEAST IOWA

CITY           SKY/WX    TMP DP  RH WIND       PRES   REMARKS
BURLINGTON     CLOUDY    30  23  75 N8        30.14R WCI  22
FAIRFIELD *    CLOUDY    28  21  74 N8        30.16S WCI  20
FORT MADISON * CLOUDY    30  23  74 N9        30.15R WCI  22
KEOKUK *       CLOUDY    32  21  64 N8        30.14R WCI  25
OSKALOOSA *      N/A     27  21  80 N9        30.18R WCI  17
CENTERVILLE *  MOCLDY    28  21  74 N8        30.17S WCI  20
OTTUMWA        CLOUDY    28  21  75 N9        30.17R WCI  19
WASHINGTON *   MOCLDY    27  25  93 NW9       30.16R WCI  17
$$

ABBREVIATIONS USED IN REMARKS
   TC - TEMPERATURES IN CELSIUS
  WCI - WIND CHILL INDEX
   HX - HEAT INDEX
  VSB - VISIBILITY
$$




USA.gov is the U.S. government's official web portal to all federal, state and local government web resources and services.